Bahrain International Airport


Codes: OBBI/BAH
Name: Bahrain International Airport
City: Bahrain
Country: Bahrain
Elevation: 6 ft.
Website:
Wikipedia:

Photos at Bahrain International Airport


   Photos courtesy of SpottingLog. You can add your own sightings and photos by signing up for a free trial today.



No photos found.

Weather at Bahrain International Airport


Time (UTC)DescriptionTempratureWindCloud coverageVisibilityPressureHumidity
15-Apr-2024 18:00Overcast Clouds25°C13 mph, E92%10000m1007hPa67%
15-Apr-2024 21:00Overcast Clouds24°C25 mph, NE93%10000m1008hPa70%
16-Apr-2024 00:00Scattered Clouds23°C29 mph, E50%10000m1005hPa78%
16-Apr-2024 03:00Light Rain23°C20 mph, E2%10000m1007hPa84%
16-Apr-2024 06:00Light Rain24°C13 mph, E39%10000m1008hPa85%
16-Apr-2024 09:00Moderate Rain24°C16 mph, E84%10000m1008hPa88%
16-Apr-2024 12:00Moderate Rain22°C22 mph, NE84%10000m1007hPa91%
16-Apr-2024 15:00Light Rain23°C20 mph, NE92%10000m1008hPa81%
16-Apr-2024 18:00Light Rain23°C11 mph, NW54%10000m1011hPa79%
16-Apr-2024 21:00Light Rain22°C11 mph, NW9%10000m1010hPa77%
17-Apr-2024 00:00Clear Sky23°C7 mph, NW3%10000m1008hPa74%
17-Apr-2024 03:00Clear Sky23°C11 mph, NW0%10000m1010hPa70%
17-Apr-2024 06:00Clear Sky23°C11 mph, NW0%10000m1011hPa65%
17-Apr-2024 09:00Clear Sky24°C7 mph, NW0%10000m1010hPa60%
17-Apr-2024 12:00Clear Sky25°C4 mph, NE0%10000m1009hPa55%
17-Apr-2024 15:00Clear Sky25°C4 mph, SE0%10000m1009hPa58%
17-Apr-2024 18:00Clear Sky25°C7 mph, S0%10000m1010hPa60%
17-Apr-2024 21:00Clear Sky25°C9 mph, SW0%10000m1009hPa61%
18-Apr-2024 00:00Clear Sky25°C9 mph, S0%10000m1009hPa60%
18-Apr-2024 03:00Clear Sky25°C9 mph, SW0%10000m1010hPa62%
18-Apr-2024 06:00Clear Sky26°C9 mph, W0%10000m1011hPa52%
18-Apr-2024 09:00Clear Sky26°C9 mph, N0%10000m1010hPa51%
18-Apr-2024 12:00Clear Sky26°C11 mph, NE0%10000m1009hPa61%
18-Apr-2024 15:00Clear Sky26°C11 mph, NE0%10000m1009hPa65%
18-Apr-2024 18:00Clear Sky25°C7 mph, E0%10000m1010hPa63%
18-Apr-2024 21:00Clear Sky25°C4 mph, SE0%10000m1010hPa63%
19-Apr-2024 00:00Clear Sky25°C2 mph, SW0%10000m1009hPa64%
19-Apr-2024 03:00Clear Sky25°C2 mph, S0%10000m1010hPa61%
19-Apr-2024 06:00Clear Sky26°C2 mph, SW0%10000m1010hPa58%
19-Apr-2024 09:00Clear Sky27°C2 mph, SW0%10000m1010hPa52%
19-Apr-2024 12:00Clear Sky28°C4 mph, NE0%10000m1008hPa42%
19-Apr-2024 15:00Clear Sky27°C9 mph, NE0%10000m1008hPa51%
19-Apr-2024 18:00Clear Sky26°C9 mph, E0%10000m1009hPa51%
19-Apr-2024 21:00Clear Sky26°C13 mph, SE0%10000m1007hPa59%
20-Apr-2024 00:00Clear Sky25°C9 mph, S0%10000m1007hPa64%
20-Apr-2024 03:00Clear Sky25°C7 mph, SW0%10000m1009hPa65%
20-Apr-2024 06:00Clear Sky26°C9 mph, SW0%10000m1010hPa55%
20-Apr-2024 09:00Clear Sky27°C2 mph, SW0%10000m1010hPa56%
20-Apr-2024 12:00Clear Sky28°C9 mph, E0%10000m1008hPa50%
20-Apr-2024 15:00Clear Sky27°C11 mph, E0%10000m1008hPa55%